RH
4 3 4 62 100 100 100 100 100 100 100 64 57 63 30 20 19 26 31 30 65 39 72 100 96 97 98 98 97 98 94 95 99 98 97 91 84 77 87 97 90 97 95 94 97 90 92 97 95 91 80 77 88 89
4 4 4 89 100 100 100 100 100 100 100 100 66 54 27 20 22 32 30 32 69 42 62 98 99 94 97 97 99 97 98 98 98 97 97 99 99 97 99 98 100 98 98 98 99 90 94 92 97 94 86 74 71 74
4 4 3 47 100 100 100 100 100 100 100 99 98 96 31 23 25 31 33 36 72 48 46 92 99 100 100 97 98 98 96 98 98 97 98 97 95 97 97 100 99 96 98 89 85 78 66 58 61 71 69 66 63 52
4 4 4 34 99 100 100 100 100 98 100 100 100 98 33 28 29 34 35 40 74 64 35 75 98 100 100 100 95 96 97 97 92 89 97 98 98 94 96 95 74 71 68 70 78 90 93 96 95 88 84 86 88 86
4 4 4 34 62 99 100 100 100 100 100 100 99 86 46 37 34 38 38 40 67 89 28 59 91 98 100 100 98 79 77 46 41 38 46 60 63 58 54 52 69 88 90 81 62 57 52 46 45 60 75 81 82 80
4 4 3 6 49 91 100 97 100 100 100 100 100 99 98 78 41 40 46 40 54 95 40 34 69 97 99 99 100 94 74 54 39 32 31 38 39 41 48 53 59 53 50 50 47 45 45 43 32 21 21 31 46 60
4 3 3 4 56 97 98 89 100 100 100 100 100 100 100 99 85 47 50 46 46 98 93 33 35 64 84 88 97 100 95 80 66 61 45 41 30 30 46 48 44 39 37 41 46 46 46 40 23 16 15 27 56 79
4 3 2 3 64 100 95 87 100 100 100 100 100 100 100 100 99 80 56 51 55 81 99 89 36 28 43 60 76 74 81 88 88 80 77 70 59 42 26 47 56 53 43 35 31 27 20 17 19 21 34 54 66 58
4 2 1 6 91 99 91 91 100 100 100 100 100 100 99 97 99 72 57 59 47 59 71 77 78 70 48 33 33 34 40 44 48 47 42 43 42 42 41 35 31 31 30 28 28 28 28 35 51 69 76 76 58 41
4 1 0 17 100 100 86 83 100 100 100 100 100 98 93 99 95 67 69 69 58 48 44 48 76 96 98 91 72 59 54 39 24 24 26 27 27 28 29 30 30 30 28 30 43 58 59 51 46 41 38 44 67 88
4 1 0 22 99 100 98 100 100 100 100 95 92 90 98 100 95 84 82 77 66 54 46 40 45 66 93 95 93 90 82 85 85 84 78 51 38 53 49 45 52 60 67 68 70 71 75 80 88 94 90 75 56 50
4 1 0 49 100 100 100 100 100 100 100 84 90 96 100 100 99 92 80 77 72 64 55 49 48 47 57 68 83 90 90 88 85 78 86 76 87 94 89 83 85 87 90 88 84 78 68 60 54 51 51 50 52 70
4 1 4 74 100 100 100 100 100 100 100 100 100 99 100 96 89 76 64 59 57 63 66 63 58 53 52 52 55 64 73 75 78 78 73 73 85 91 86 78 74 71 68 63 58 54 53 53 52 50 52 74 91 87
4 1 10 76 100 100 100 100 100 100 100 100 100 93 100 95 80 66 74 79 80 95 99 98 98 84 66 63 60 58 57 56 56 56 57 64 68 73 73 70 67 62 58 54 51 50 49 50 57 83 93 83 74 68
5 2 5 68 100 100 100 100 100 100 100 100 99 98 93 75 70 80 82 93 100 100 100 100 96 95 93 79 65 57 55 52 52 52 53 51 50 49 49 50 53 54 56 60 64 70 80 93 91 82 76 70 67 61
5 3 13 63 100 100 100 100 100 100 100 100 99 88 84 81 78 88 92 97 100 99 99 95 97 93 92 89 77 72 69 67 68 70 68 67 62 60 62 62 60 61 68 77 92 100 94 83 79 77 71 63 59 55
5 4 39 98 100 100 100 100 100 100 100 100 93 75 83 86 94 95 100 100 100 97 100 98 96 94 92 88 81 82 84 91 93 92 88 80 78 74 72 74 76 80 92 100 97 91 84 83 77 68 61 58 55 51
5 5 50 100 100 100 100 100 100 100 100 98 96 93 85 95 99 100 100 100 96 87 94 98 100 100 95 85 88 97 89 83 81 82 85 87 88 90 92 95 100 100 98 93 87 86 85 80 72 69 69 66 58 48
5 6 62 100 100 100 100 100 100 100 99 96 96 95 100 100 100 100 100 100 100 100 100 100 98 91 89 91 96 95 92 87 87 93 92 94 98 100 100 100 100 100 98 97 96 94 89 82 72 66 65 56 47 45
6 7 20 100 100 100 100 100 100 100 99 98 100 100 100 100 100 100 100 100 100 100 100 98 97 98 99 100 100 100 100 99 95 96 98 99 99 100 100 100 100 98 95 95 94 88 75 64 64 65 61 61 59 60
7 7 8 54 100 100 100 100 100 100 100 100 100 100 100 100 100 100 100 100 100 100 100 100 100 100 100 98 100 100 100 100 100 100 100 100 100 100 98 98 97 96 94 92 86 80 77 80 80 82 80 74 67 65
11 9 10 25 100 100 100 100 100 100 100 100 100 100 100 100 100 100 100 100 100 100 100 100 100 100 100 100 99 100 100 100 100 100 100 100 100 100 100 99 95 92 89 86 86 89 87 85 82 75 69 68 70 74
14 13 9 17 80 100 100 100 100 100 100 100 100 100 100 100 100 100 100 96 94 100 100 100 100 100 100 100 100 100 100 100 100 100 100 100 100 100 99 98 97 96 98 98 94 89 84 77 73 72 73 74 79 84
14 14 14 9 28 77 100 100 100 100 100 100 100 100 100 100 100 100 99 99 98 100 100 100 100 100 100 100 100 100 100 100 100 100 100 100 100 100 100 100 100 100 98 93 87 83 80 76 74 73 78 84 87 86
12 12 14 13 11 19 59 100 100 100 100 100 100 100 100 100 100 99 99 100 100 100 100 100 100 100 100 100 100 100 100 100 100 100 100 100 100 100 100 99 96 94 90 86 83 80 76 76 79 84 86 84 82 83
15 15 14 18 17 13 14 44 100 100 100 100 100 100 100 100 100 99 100 100 100 100 100 98 98 98 100 100 100 100 100 100 100 100 100 100 100 98 96 94 91 89 85 81 77 77 82 88 86 84 83 81 75 66
20 20 20 18 24 22 20 37 92 100 100 100 100 99 98 99 100 96 98 100 100 100 100 100 100 100 100 100 100 100 100 100 100 99 99 98 96 94 93 91 88 86 83 85 90 92 91 87 85 80 74 66 53 34
25 23 22 25 25 29 25 39 97 100 100 100 100 100 100 99 98 94 98 100 100 100 100 100 100 99 97 95 95 97 99 100 100 100 96 94 92 89 86 86 93 97 99 99 94 88 83 79 74 64 50 34 20 20
25 29 33 37 31 27 31 28 65 100 100 100 100 100 100 100 100 100 100 100 100 100 100 100 100 100 100 100 100 100 100 100 100 100 99 93 91 92 96 99 100 100 98 92 87 80 72 60 47 33 20 24 38 56
45 35 30 34 40 41 38 31 31 55 100 100 100 100 100 100 100 100 100 100 100 100 100 100 100 100 100 100 100 100 100 100 100 95 88 89 90 94 97 96 94 91 85 76 63 52 38 25 16 26 49 62 67 65
65 60 59 52 41 37 42 48 44 42 39 61 94 99 100 100 100 100 100 100 100 100 100 100 100 100 100 100 100 100 100 98 93 91 93 96 98 98 94 85 74 64 55 42 26 18 23 39 55 66 74 72 44 15
73 75 71 70 67 62 39 42 54 53 50 45 43 36 52 81 100 100 100 100 100 100 100 100 100 100 100 100 100 100 100 100 100 100 100 96 91 82 74 60 40 22 16 17 32 51 65 79 83 76 45 16 12 13
81 83 83 76 78 78 75 54 30 42 50 53 47 42 36 30 28 32 55 86 98 99 100 100 100 99 99 99 99 99 99 98 94 93 91 83 65 34 18 16 21 38 59 71 84 90 84 64 33 15 12 13 18 40
Wind_Speed
18 30 44 60 62 59 54 54 45 54 49 44 41 38 35 33 30 28 22 23 21 23 25 22 22 17 17 21 17 21 20 25 25 21 15 23 20 22 25 24 22 20 24 23 26 21 21 23 25 25 24 25 25 25
18 27 42 64 60 56 53 52 49 55 53 50 41 38 36 34 33 27 25 25 23 24 27 23 25 21 17 23 21 22 20 19 24 23 19 23 25 22 21 19 19 25 22 21 23 20 20 18 19 21 26 30 31 33
19 28 43 63 62 55 54 54 47 51 59 53 50 44 36 34 33 29 27 26 24 25 31 26 26 24 21 22 25 26 24 23 23 21 19 17 20 20 21 18 19 15 10 12 13 12 13 15 18 19 22 24 27 28
19 28 43 60 61 54 56 55 44 44 54 55 48 43 39 35 34 30 28 27 26 26 33 29 26 26 25 22 21 21 23 22 19 18 18 21 21 19 18 16 14 14 14 12 12 13 15 16 18 20 21 23 24 26
19 29 43 58 60 54 57 52 43 47 51 50 46 43 39 36 35 31 30 28 27 27 33 34 30 29 29 27 26 22 21 21 21 20 21 21 20 19 19 17 15 16 16 14 13 16 17 18 20 23 24 25 27 28
19 30 41 55 60 59 59 49 42 42 50 53 46 44 41 37 36 33 32 29 29 28 31 37 35 31 29 29 28 29 26 25 23 22 21 21 22 23 22 20 20 19 18 19 20 21 23 24 24 24 26 28 31 33
20 30 41 56 62 62 61 50 41 41 50 48 44 40 40 40 37 34 31 27 30 29 29 35 38 37 33 31 30 32 32 32 31 28 27 25 25 26 26 24 22 22 24 27 27 28 28 28 29 30 30 31 31 31
20 29 43 54 64 64 60 52 44 41 48 49 49 46 42 41 40 37 33 32 32 32 31 33 35 36 37 36 35 33 32 34 35 34 33 32 32 31 29 25 27 29 30 29 29 29 31 32 33 33 32 31 30 31
20 31 44 54 66 65 59 51 44 39 49 49 48 46 48 45 43 38 35 35 36 38 37 32 29 30 34 36 35 36 38 38 39 38 37 37 35 33 30 29 30 31 32 33 34 35 36 35 33 31 31 32 33 34
21 32 45 56 65 63 57 52 45 39 43 49 48 45 46 47 42 39 38 38 39 39 35 32 29 29 32 34 35 36 36 38 40 41 41 41 36 33 34 33 32 33 35 36 34 31 29 28 29 30 31 33 36 39
24 34 46 56 60 59 55 48 46 42 50 51 45 45 45 43 42 41 41 41 40 36 31 29 30 30 33 31 32 35 35 36 35 31 31 31 28 28 31 33 32 31 31 30 30 31 31 32 33 34 34 35 37 39
26 36 47 57 60 59 57 54 52 50 53 48 43 42 46 49 48 49 49 46 42 36 32 29 30 32 32 32 32 30 30 31 31 30 30 28 24 27 31 31 30 29 28 29 28 28 29 31 33 35 37 37 37 39
27 39 47 62 63 59 56 60 52 51 51 53 48 50 50 51 48 41 36 35 33 29 29 27 29 30 32 33 33 33 34 34 31 30 26 24 28 30 29 28 28 28 29 31 32 33 34 35 35 35 35 37 37 37
27 40 47 61 65 62 57 56 61 55 53 53 52 49 48 46 38 35 31 29 29 31 28 29 31 30 31 32 34 35 35 34 33 28 24 27 28 29 29 30 31 32 33 34 34 35 35 35 35 35 34 33 33 34
26 41 47 63 65 61 59 60 64 61 53 49 53 53 45 39 37 33 30 30 30 31 29 31 33 33 34 37 36 35 34 35 31 25 27 29 30 30 30 31 31 33 34 36 37 37 35 33 32 32 31 31 33 34
25 41 47 60 57 53 51 57 62 64 58 51 52 50 43 43 38 34 31 31 29 33 32 32 33 34 34 35 34 34 32 30 28 27 28 30 30 30 30 30 31 32 33 32 32 31 31 30 30 31 32 33 35 36
23 40 44 46 47 43 48 51 50 59 61 55 53 49 43 42 40 37 34 35 34 33 34 32 32 33 31 31 28 25 21 22 24 28 31 32 33 34 34 34 32 30 30 31 32 31 30 30 31 33 34 36 38 40
18 37 44 42 43 45 48 48 49 49 60 60 55 51 49 44 42 40 39 37 33 34 33 33 33 35 34 32 27 26 27 26 26 27 26 26 26 27 28 28 27 29 30 31 31 32 32 34 35 37 39 40 42 44
13 31 44 40 43 47 49 52 53 48 51 58 58 57 55 50 45 42 40 40 37 35 36 34 34 35 33 32 33 33 32 32 29 29 29 28 27 27 27 29 30 32 33 34 34 35 36 37 38 40 42 43 46 49
10 24 43 42 40 42 45 48 49 49 50 52 56 58 60 58 55 50 46 42 41 41 38 35 35 34 30 32 32 32 32 31 32 31 30 30 31 30 29 30 32 33 35 36 36 37 38 40 42 44 46 49 52 55
9 18 33 46 40 42 45 51 48 48 48 53 56 54 55 58 58 57 55 52 48 44 40 39 39 39 37 38 36 35 35 34 34 33 33 33 33 34 34 34 35 36 38 39 41 43 44 46 48 51 53 55 58 61
10 13 27 43 42 40 41 44 48 51 48 46 48 55 59 55 54 57 57 58 56 55 52 50 46 42 42 42 42 42 41 41 40 38 36 36 37 38 39 40 40 42 44 46 47 48 50 52 54 57 59 61 62 62
11 12 19 34 43 41 39 39 40 45 48 50 47 45 46 51 55 54 56 60 60 57 56 54 52 50 47 46 47 46 46 43 42 41 40 41 42 43 44 46 47 48 49 50 52 53 55 56 57 59 59 59 59 59
12 12 14 23 38 41 41 39 38 40 43 44 47 48 48 46 44 44 47 50 54 56 57 56 54 52 51 50 50 50 49 48 48 47 45 45 45 45 46 47 48 49 50 52 53 54 55 55 56 57 57 56 56 57
12 9 13 16 25 34 39 40 40 39 39 42 44 46 47 47 46 44 41 39 39 41 42 45 46 47 47 47 48 47 46 44 42 41 42 44 44 46 46 47 48 49 50 50 51 53 54 54 54 53 53 54 55 57
11 8 8 14 19 27 34 37 39 40 41 40 41 43 44 44 44 44 41 39 39 39 38 39 39 39 39 38 37 38 39 41 41 41 41 42 43 44 45 45 47 48 50 51 51 51 50 50 50 50 51 53 57 61
11 7 5 8 14 20 28 33 36 38 38 40 40 40 41 43 44 45 43 42 41 40 40 40 41 40 40 40 39 39 39 39 39 39 40 42 44 45 45 46 47 47 47 47 47 46 46 47 48 50 54 58 63 63
10 6 4 4 8 14 22 29 32 33 37 40 39 39 41 42 41 40 39 38 38 37 36 36 36 37 37 37 38 38 39 39 39 41 43 44 45 45 45 45 44 43 42 42 43 44 46 48 52 56 60 60 55 50
9 7 5 2 4 9 16 24 33 33 33 35 38 42 42 40 40 39 38 38 39 39 40 40 41 41 42 42 43 44 43 43 44 44 44 43 41 40 40 39 39 39 40 42 44 47 51 55 58 57 52 46 42 42
9 8 7 6 4 6 9 15 24 35 38 37 38 36 35 35 35 38 39 41 43 45 48 48 47 45 45 46 46 44 44 44 44 43 39 37 36 36 36 36 38 41 44 48 51 54 54 52 46 40 38 40 41 43
6 7 7 8 7 3 6 10 14 20 29 38 43 42 40 39 37 34 34 34 36 38 41 43 44 42 42 41 41 42 42 43 45 42 38 36 36 38 40 42 45 48 50 50 48 44 39 36 35 37 38 39 43 47
4 3 4 6 6 7 4 4 9 12 16 21 26 34 41 45 45 41 37 38 39 38 36 36 37 37 38 39 40 41 42 41 41 40 40 40 40 42 45 47 46 43 40 35 31 30 32 34 34 37 41 45 40 37
8 4 3 2 4 6 6 6 3 3 7 11 15 20 25 31 35 39 44 45 42 38 37 37 37 38 38 38 38 38 39 39 39 39 39 42 44 41 38 35 30 26 26 27 29 28 31 35 40 41 36 34 32 31
Wind_Direction
259 217 203 194 188 185 189 203 208 200 201 196 200 199 202 204 204 212 216 226 218 212 211 215 207 198 194 178 178 166 162 176 183 198 189 190 183 195 204 211 221 220 223 229 222 237 231 239 236 238 234 240 245 249
256 218 201 192 185 182 184 197 206 202 206 210 196 200 200 202 205 208 216 222 219 211 208 212 203 195 202 173 174 185 181 189 191 196 205 203 198 209 200 223 213 227 226 229 236 243 239 238 249 250 242 247 255 257
252 218 202 199 193 184 187 199 205 203 205 209 204 204 201 201 205 208 213 218 218 212 208 211 204 198 201 195 178 181 186 188 190 191 200 197 189 197 222 205 194 192 230 213 219 228 242 244 247 253 254 256 260 261
251 215 203 200 198 192 191 201 201 199 206 202 198 198 198 200 206 208 214 217 218 214 208 209 213 202 202 202 192 193 190 182 185 187 188 192 190 186 178 185 193 204 216 224 234 234 243 253 257 258 259 261 262 262
254 214 199 199 201 195 194 198 194 199 201 202 193 195 195 200 206 208 215 216 218 216 210 208 213 211 204 205 197 197 196 198 198 199 199 199 199 201 202 204 212 221 228 240 255 260 264 268 270 267 265 265 266 268
247 212 201 195 195 200 194 193 194 196 203 199 194 193 196 199 206 210 214 216 219 219 214 212 213 218 209 206 208 207 209 209 206 206 206 206 208 207 204 207 219 225 233 245 253 255 259 264 267 268 268 267 267 267
237 209 199 194 191 196 192 191 193 196 203 197 200 197 202 205 206 213 215 216 221 221 219 215 217 220 220 214 211 213 218 222 224 226 225 222 223 222 215 216 230 242 255 263 262 260 263 265 267 270 271 271 271 272
229 209 195 194 189 191 190 192 195 198 203 210 212 213 209 208 211 211 211 213 216 220 223 220 218 221 226 229 229 227 226 225 227 232 234 236 236 237 234 239 248 252 255 257 261 266 269 270 274 275 274 274 276 277
225 204 193 192 187 188 186 189 192 198 200 209 214 220 215 213 212 210 212 215 218 219 221 223 223 220 227 230 234 236 238 239 238 238 239 240 239 242 246 247 248 253 256 260 265 268 270 272 272 272 273 274 275 276
220 200 191 191 184 186 184 189 193 194 198 214 215 221 220 211 205 209 211 214 217 221 222 224 223 224 226 229 232 237 241 245 246 247 248 247 245 250 253 252 254 257 260 263 264 264 266 267 268 269 270 272 276 279
212 198 190 190 188 184 183 185 197 202 207 215 217 218 205 202 206 210 214 215 217 220 220 221 225 228 235 234 235 237 239 244 248 249 254 254 251 249 250 250 251 251 254 256 257 260 264 267 269 272 275 276 276 279
208 196 189 188 186 184 184 195 201 198 206 213 219 210 203 204 208 210 213 214 217 218 217 216 220 226 231 237 242 245 246 243 246 247 250 252 251 249 251 253 256 257 260 264 267 268 268 269 269 270 270 274 280 287
205 196 190 187 187 185 188 191 198 197 204 210 213 212 211 212 213 216 220 227 230 224 225 219 222 226 230 233 236 239 243 246 249 248 247 246 246 250 253 254 256 256 257 257 258 260 261 263 266 271 278 283 287 289
208 196 190 189 187 186 187 190 197 200 199 205 213 221 218 219 225 227 228 236 225 227 225 220 220 223 227 231 234 237 242 244 247 249 249 248 248 251 255 257 256 254 256 259 262 264 267 269 274 279 283 287 289 291
206 197 193 192 190 190 191 195 197 202 203 207 213 219 219 219 218 223 226 219 219 221 225 226 227 229 230 234 238 242 246 249 252 255 251 252 254 254 255 255 259 264 266 267 268 270 273 274 277 282 285 287 289 292
206 197 194 192 194 188 189 192 199 203 207 209 214 215 216 216 218 220 220 208 212 215 222 227 231 234 235 240 245 249 255 260 262 257 254 252 252 254 255 261 266 269 269 268 267 265 266 271 277 281 282 284 288 291
208 198 195 191 193 187 188 191 199 203 204 208 209 210 212 217 216 213 215 216 216 217 222 228 232 234 238 238 241 249 255 255 252 252 252 254 256 258 261 264 265 262 260 259 260 263 268 272 275 278 280 285 291 295
219 200 196 190 188 189 187 193 201 204 205 207 209 211 215 215 216 216 212 214 219 221 226 230 228 230 234 236 235 243 250 256 258 256 256 257 258 259 257 255 253 253 254 257 261 265 268 271 273 277 283 288 294 299
233 206 197 194 188 188 190 200 205 210 210 209 208 212 213 215 218 217 218 220 223 226 223 225 230 234 239 241 243 246 248 250 253 255 256 255 256 256 255 253 253 255 257 260 262 265 267 272 277 282 287 293 296 299
245 212 203 198 192 192 193 200 204 208 210 211 211 210 214 218 219 219 223 225 227 231 233 233 233 234 238 237 239 241 241 245 250 254 258 260 261 261 260 259 258 258 259 261 265 269 274 279 285 290 292 294 296 299
263 218 209 203 199 200 202 204 205 207 209 210 214 215 214 215 218 222 223 226 229 231 235 236 236 237 237 239 241 243 245 250 254 255 258 259 261 262 263 264 264 265 267 270 272 275 281 286 289 291 293 296 298 299
275 232 210 209 207 208 211 210 212 211 210 212 216 219 220 221 222 222 223 226 230 233 235 235 235 237 239 244 248 250 251 256 259 258 258 260 259 259 260 263 266 268 272 275 278 281 283 286 290 293 296 297 297 297
281 250 219 210 211 212 215 215 215 214 215 216 217 219 221 225 226 228 231 228 229 231 234 235 237 241 246 249 252 254 256 260 260 260 262 261 260 261 264 266 269 273 274 276 279 281 284 288 291 293 294 295 296 297
291 266 239 217 213 213 215 217 218 219 217 216 218 221 222 223 225 229 231 233 235 236 238 239 242 245 247 250 251 253 255 258 260 264 265 264 264 264 265 267 269 272 275 278 282 285 288 290 291 293 294 295 296 297
314 280 245 228 214 210 214 217 220 221 221 221 220 219 222 225 229 232 234 235 238 240 243 245 247 250 253 255 256 258 260 261 260 257 256 257 258 260 264 267 271 274 277 280 283 286 289 290 291 293 294 295 296 298
330 317 263 232 222 212 208 210 214 219 222 223 224 225 225 227 230 234 237 240 241 242 243 244 245 247 249 250 251 251 251 251 250 251 253 256 259 263 267 271 274 277 281 284 287 288 288 289 291 292 294 297 299 302
337 333 298 243 226 219 213 209 208 209 214 220 222 225 227 230 232 235 237 239 240 242 245 246 246 247 248 248 248 248 248 248 250 255 260 264 267 270 274 276 279 281 282 283 284 285 287 289 292 295 297 300 303 304
343 331 316 252 226 221 216 212 208 206 207 209 212 218 224 227 231 233 234 235 235 235 236 237 240 244 247 250 251 251 254 257 260 261 264 267 270 273 277 278 278 277 279 281 283 286 290 293 296 298 301 302 303 302
343 338 327 290 222 214 215 214 211 210 210 212 213 214 215 220 222 222 223 222 222 223 223 226 229 234 238 241 243 246 250 253 255 257 261 270 272 272 273 274 276 278 279 283 286 290 293 296 299 299 299 298 298 300
3 9 8 348 295 211 207 209 214 216 215 216 217 217 216 216 218 221 223 222 222 224 226 229 234 236 238 239 243 249 251 253 253 264 272 270 269 270 271 274 276 280 284 288 292 295 298 297 295 293 296 298 300 302
340 4 18 18 15 325 221 204 209 214 220 223 224 224 224 222 220 219 220 222 224 227 230 233 234 237 240 244 248 251 254 259 264 267 265 265 268 271 274 278 282 286 290 293 294 293 291 291 293 296 297 299 302 305
283 329 10 21 20 24 20 228 221 218 220 221 222 226 229 231 232 228 227 228 228 228 230 233 236 238 242 246 250 254 256 257 257 260 264 269 274 278 282 287 289 289 287 286 285 287 289 292 294 296 299 301 303 304
242 252 270 30 46 40 35 39 55 213 230 230 228 228 228 228 229 232 236 237 238 237 237 239 241 243 245 248 251 254 257 261 265 269 272 277 282 283 281 280 278 277 279 282 287 290 292 295 297 298 299 300 301 305